SQ3RAX-13 Weather Reports


time (UTC)temp
C
wind
direction
speed
KPH
gust
KPH
rain 1hr
cm
rain 24hr
cm
rain mn
cm
humidity
%
barometer
mb
20260503004607 9 171 14.5 22.5 0.00 0.00 0.00 69 1017.0
20260503003607 9 175 12.9 19.3 0.00 0.00 0.00 69 1017.0
20260503002607 10 171 14.5 22.5 0.00 0.00 0.00 67 1016.0
20260503001607 10 171 14.5 22.5 0.00 0.00 0.00 66 1016.0
20260503000607 10 171 14.5 22.5 0.00 0.00 0.00 66 1017.0
20260502235607 10 171 14.5 22.5 0.00 0.00 0.00 66 1017.0
20260502234607 10 171 14.5 22.5 0.00 0.00 0.00 65 1017.0
20260502233607 11 185 12.9 19.3 0.00 0.00 0.00 64 1017.0
20260502232607 11 185 12.9 19.3 0.00 0.00 0.00 64 1017.0
20260502231607 11 185 12.9 19.3 0.00 0.00 0.00 61 1018.0
20260502230607 11 185 12.9 19.3 0.00 0.00 0.00 63 1018.0
20260502225607 11 185 12.9 19.3 0.00 0.00 0.00 63 1018.0
20260502224607 11 185 12.9 19.3 0.00 0.00 0.00 61 1018.0
20260502223607 11 185 12.9 19.3 0.00 0.00 0.00 61 1018.0
20260502222607 12 182 12.9 22.5 0.00 0.00 0.00 58 1018.0
20260502221607 12 182 12.9 22.5 0.00 0.00 0.00 58 1018.0
20260502220607 12 182 12.9 22.5 0.00 0.00 0.00 58 1018.0
20260502215607 12 182 12.9 22.5 0.00 0.00 0.00 59 1018.0
20260502214607 12 182 12.9 22.5 0.00 0.00 0.00 57 1018.0
20260502213607 12 182 12.9 22.5 0.00 0.00 0.00 57 1018.0
20260502212607 13 180 14.5 24.1 0.00 0.00 0.00 54 1018.0
20260502211607 13 180 14.5 24.1 0.00 0.00 0.00 50 1018.0
20260502210607 13 180 14.5 24.1 0.00 0.00 0.00 50 1018.0
20260502205607 13 180 14.5 24.1 0.00 0.00 0.00 55 1018.0
20260502204607 13 180 14.5 24.1 0.00 0.00 0.00 53 1018.0
20260502203607 13 180 14.5 24.1 0.00 0.00 0.00 53 1018.0
20260502202607 15 178 14.5 29.0 0.00 0.00 0.00 47 1018.0
20260502201607 15 178 14.5 29.0 0.00 0.00 0.00 45 1019.0
20260502200607 15 178 14.5 29.0 0.00 0.00 0.00 50 1019.0
20260502195607 15 178 14.5 29.0 0.00 0.00 0.00 50 1019.0
20260502194607 15 178 14.5 29.0 0.00 0.00 0.00 51 1019.0
20260502193607 15 178 14.5 29.0 0.00 0.00 0.00 51 1019.0
20260502192607 17 172 16.1 29.0 0.00 0.00 0.00 43 1019.0
20260502191607 18 172 16.1 29.0 0.00 0.00 0.00 40 1019.0
20260502190607 18 172 16.1 29.0 0.00 0.00 0.00 46 1019.0
20260502185607 18 172 16.1 29.0 0.00 0.00 0.00 44 1019.0
20260502184607 18 172 16.1 29.0 0.00 0.00 0.00 44 1019.0
20260502183607 20 165 16.1 30.6 0.00 0.00 0.00 33 1018.0
20260502182608 20 165 16.1 30.6 0.00 0.00 0.00 33 1018.0
20260502181608 21 165 16.1 30.6 0.00 0.00 0.00 38 1018.0
20260502180608 21 165 16.1 30.6 0.00 0.00 0.00 48 1019.0
20260502163608 23 161 14.5 29.0 0.00 0.00 0.00 44 1019.0
20260502162608 24 162 16.1 27.4 0.00 0.00 0.00 26 1019.0
20260502161608 24 162 16.1 27.4 0.00 0.00 0.00 26 1019.0
20260502160608 24 162 16.1 27.4 0.00 0.00 0.00 36 1019.0
20260502151608 25 166 16.1 17.7 0.00 0.00 0.00 26 1020.0
20260502150608 25 166 16.1 17.7 0.00 0.00 0.00 34 1020.0
20260502130607 25 176 14.5 16.1 0.00 0.00 0.00 31 1022.0
20260502123607 25 177 12.9 14.5 0.00 0.00 0.00 31 1022.0
20260502122436 24 188 11.3 12.9 0.00 0.00 0.00 27 1022.0
20260502121452 24 188 11.3 12.9 0.00 0.00 0.00 27 1022.0
20260502120602 24 188 11.3 12.9 0.00 0.00 0.00 32 1022.0
20260502113609 24 188 11.3 12.9 0.00 0.00 0.00 32 1022.0
20260502112459 23 201 9.7 12.9 0.00 0.00 0.00 29 1023.0
20260502111459 23 201 9.7 12.9 0.00 0.00 0.00 35 1023.0
20260502110459 23 201 9.7 12.9 0.00 0.00 0.00 35 1023.0
20260502105459 23 201 9.7 12.9 0.00 0.00 0.00 35 1023.0
20260502104459 23 201 9.7 12.9 0.00 0.00 0.00 35 1023.0
20260502103459 23 215 9.7 11.3 0.00 0.00 0.00 31 1023.0
20260502102459 23 215 9.7 11.3 0.00 0.00 0.00 31 1023.0
20260502101459 23 215 9.7 11.3 0.00 0.00 0.00 38 1023.0
20260502100459 23 215 9.7 11.3 0.00 0.00 0.00 38 1023.0
20260502091459 21 226 8.0 9.7 0.00 0.00 0.00 43 1024.0
20260502090459 21 226 8.0 9.7 0.00 0.00 0.00 43 1024.0
20260502071459 16 253 8.0 9.7 0.00 0.00 0.00 57 1024.0
20260502070459 17 253 8.0 9.7 0.00 0.00 0.00 55 1024.0
20260502065459 16 237 8.0 9.7 0.00 0.00 0.00 57 1024.0
20260502064459 16 237 8.0 9.7 0.00 0.00 0.00 58 1024.0
20260502063459 15 249 6.4 8.0 0.00 0.00 0.00 58 1024.0
20260502062459 15 249 6.4 8.0 0.00 0.00 0.00 58 1024.0
20260502061459 13 249 6.4 8.0 0.00 0.00 0.00 63 1024.0
20260502060459 13 249 6.4 8.0 0.00 0.00 0.00 63 1024.0
20260502055459 13 249 6.4 8.0 0.00 0.00 0.00 63 1024.0
20260502054459 13 249 6.4 8.0 0.00 0.00 0.00 67 1024.0
20260502053459 13 249 6.4 8.0 0.00 0.00 0.00 68 1024.0
20260502052459 11 255 6.4 8.0 0.00 0.00 0.00 71 1024.0
20260502051459 10 255 6.4 8.0 0.00 0.00 0.00 74 1024.0
20260502050459 10 255 6.4 8.0 0.00 0.00 0.00 77 1024.0
20260502045459 10 255 6.4 8.0 0.00 0.00 0.00 77 1024.0
20260502044459 10 255 6.4 8.0 0.00 0.00 0.00 78 1024.0
20260502043459 7 260 6.4 6.4 0.00 0.00 0.00 83 1024.0
20260502042459 7 260 6.4 6.4 0.00 0.00 0.00 83 1024.0
20260502041459 6 260 6.4 6.4 0.00 0.00 0.00 84 1023.0
20260502040459 7 260 6.4 6.4 0.00 0.00 0.00 82 1024.0
20260502035459 7 260 6.4 6.4 0.00 0.00 0.00 82 1024.0
20260502034459 7 260 6.4 6.4 0.00 0.00 0.00 82 1024.0
20260502033459 6 255 6.4 6.4 0.00 0.00 0.00 85 1024.0
20260502032459 6 255 6.4 6.4 0.00 0.00 0.00 84 1023.0
20260502031459 6 255 6.4 6.4 0.00 0.00 0.00 84 1023.0
20260502030459 6 255 6.4 6.4 0.00 0.00 0.00 82 1024.0
20260502025459 6 255 6.4 6.4 0.00 0.00 0.00 82 1024.0
20260502024459 6 255 6.4 6.4 0.00 0.00 0.00 82 1024.0
20260502023459 6 255 6.4 6.4 0.00 0.00 0.00 82 1024.0
20260502022459 6 239 4.8 6.4 0.00 0.00 0.00 83 1024.0
20260502021459 6 239 4.8 6.4 0.00 0.00 0.00 82 1024.0
20260502020459 7 239 4.8 6.4 0.00 0.00 0.00 81 1024.0
20260502015459 7 239 4.8 6.4 0.00 0.00 0.00 80 1024.0
20260502014459 7 239 4.8 6.4 0.00 0.00 0.00 80 1024.0
20260502013459 7 239 4.8 6.4 0.00 0.00 0.00 80 1024.0
20260502012459 7 217 4.8 6.4 0.00 0.00 0.00 79 1024.0
20260502011459 7 217 4.8 6.4 0.00 0.00 0.00 80 1025.0
20260502010459 7 217 4.8 6.4 0.00 0.00 0.00 80 1025.0
20260502005459 7 5 1.6 3.2 0.00 0.00 0.00 80 1025.0